184P/Lovas 2 (2020)

Japanese version
Home page
Updated on July 7, 2020

---------------------------------------------------------------------

* Profile

* Orbital Elements

Epoch 2020 Nov. 7.0 TT = JDT 2459160.5
T 2020 Oct. 26.19311 TT                                 Rudenko
q   1.7032730            (2000.0)            P               Q
n   0.13342764     Peri.  186.43606     +0.99994359     +0.00501429
a   3.7929068      Node   173.25535     -0.00171154     +0.94610067
e   0.5509320      Incl.    4.57293     -0.01048289     +0.32383389
P   7.39
From 237 observations 1986 Dec. 2-2014 Jan. 3, mean residual 0".7.

* Magnitudes Graph

        m1 = 16.0 + 5 log d + 10.0 log r(t - 100)

---------------------------------------------------------------------

The orbital elements are published on M.P.E.C. 2020-N08.
The magnitudes graphs are made with Comet for Windows.

---------------------------------------------------------------------

Copyright(C) Seiichi Yoshida (comet@aerith.net). All rights reserved.